Home   Weather   Amsterdam Island   Past weeks

Flag for French Southern Territories Past Weather in Amsterdam Island, French Southern Territories — Yesterday and Last 2 Weeks

Now
60 °F

Cool.


Feels Like: 59 °F
Forecast: 63 / 66 °F
Wind: 6 mph from Southwest

Location: Martin De Vivies Ile Amsterdam

Current Time: Feb 19, 2017 at 9:44:42 pm

Latest Report: Feb 19, 2017 at 9:00 pm


Visibility: N/A

Pressure: 30.62 "Hg

Humidity: 69%

Dew Point: 49 °F

Location of Amsterdam IslandLocation

Past Weather in Amsterdam Island — Graph

°F

Amsterdam Island Temperature Yesterday

Maximum temperature yesterday: 62 °F (at 1:00 pm)
Minimum temperature yesterday: 53 °F (at 12:00 am)
Average temperature yesterday: 58 °F

High & Low Weather Summary for the Past Weeks

 TemperatureHumidityPressure
High76 °F (Feb 15, 12:00 pm)95% (Feb 12, 12:00 am)30.63 "Hg (Feb 12, 12:00 am)
Low53 °F (Feb 18, 12:00 am)47% (Feb 17, 3:00 pm)29.69 "Hg (Feb 17, 3:00 am)
Average65 °F76%30.27 "Hg
* Reported Feb 4 8:00 pm — Feb 19 8:00 pm, Amsterdam Island, Weather by CustomWeather, © 2017

Note: Actual official high and low records may vary slightly from our data, if they occured in-between our weather recording intervals... More about our weather records

Advertising

Amsterdam Island Weather History for the Previous 24 Hours

Scroll right to see more
 ConditionsComfort  
Time TempWeatherWind HumidityBarometerVisibility
8:00 pm
Sun, Feb 19
61 °FCool.5 mph66%30.63 "HgN/A
7:00 pm62 °FCool.3 mph63%30.61 "HgN/A
6:00 pm63 °FMild.7 mph66%30.59 "HgN/A
5:00 pm65 °FMild.6 mph56%30.58 "HgN/A
4:00 pm67 °FMild.8 mph52%30.58 "HgN/A
3:00 pm68 °FMild.10 mph50%30.58 "HgN/A
2:00 pm67 °FMild.10 mph55%30.58 "HgN/A
1:00 pm70 °FMild.9 mph52%30.59 "HgN/A
12:00 pm67 °FMild.10 mph54%30.59 "HgN/A
11:00 am67 °FMild.12 mph58%30.59 "HgN/A
10:00 am64 °FMild.10 mph59%30.60 "HgN/A
9:00 am63 °FMild.5 mph59%30.60 "HgN/A
8:00 am62 °FCool.3 mph63%30.59 "HgN/A
7:00 am60 °FCool.3 mph66%30.58 "HgN/A
6:00 am59 °FCool.6 mph66%30.57 "HgN/A
5:00 am58 °FCool.6 mph64%30.57 "HgN/A
4:00 am58 °FCool.7 mph65%30.56 "HgN/A
3:00 am58 °FCool.6 mph69%30.56 "HgN/A
2:00 am57 °FCool.3 mph67%30.56 "HgN/A
1:00 am58 °FCool.5 mph64%30.57 "HgN/A
12:00 am58 °FCool.5 mph64%30.57 "HgN/A
11:00 pm
Sat, Feb 18
58 °FCool.6 mph64%30.57 "HgN/A
10:00 pm57 °FCool.2 mph68%30.58 "HgN/A
9:00 pm57 °FCool.3 mph66%30.57 "HgN/A
Weather by CustomWeather, © 2017

See weather overviewHow to use our weather pages